Location: Sungai Kamana Besar
(2.6333°N, 113.4333°E)
Time: 05:51:10
(UTC+00:00)

Atlas Centaur 2 - Pass Details

Date: 29 May 2022
Orbit: 459 x 1304 km, 30.4° (Epoch: 26 June)

Event Time Altitude Azimuth Distance (km) Brightness Sun altitude
Exits shadow 19:06:42 28° 81° (E) 1,902 4.3 -43.3°
Drops below altitude 10° 19:10:22 10° 70° (ENE) 3,069 5.7 -42.6°
Sets 19:13:31 0° 66° (ENE) 4,127 6.6 -41.9°
